This demonstration page uses our WeatherBlox Daily Observations layout. Learn more.

Left ArrowRight Arrow

Hourly Observations for July 4, 2016

Temp ( °F °C ) Dew Point ( °F °C ) Humidity (%) Winds ( mph kmh ) Pressure ( in mb ) Visibility ( mi km ) Precip ( " mm )
12:34 am 00:34 Cloudy 66 19 63 17 88 88 E 5 7 29.88 1012 10 16 0.00 0.00
12:58 am 00:58 Mostly Cloudy 65 18.4 63 17.2 93 93 E 5 7 29.92 1013 10 16 0.00 0.00
1:25 am 01:25 Mostly Cloudy 64 18 63 17 94 94 ESE 5 7 29.91 1013 10 16 0.00 0.00
1:52 am 01:52 Cloudy 64 18 63 17 94 94 ESE 6 9 29.88 1012 10 16 0.00 0.00
1:58 am 01:58 Cloudy 65 18.1 63 17.2 95 95 ESE 7 11 29.92 1013 10 16 0.00 0.00
2:11 am 02:11 Cloudy 64 18 63 17 94 94 ESE 7 11 29.88 1012 10 16 0.00 0.00
2:23 am 02:23 Cloudy 64 18 63 17 94 94 E 8 13 29.88 1012 10 16 0.00 0.00
2:58 am 02:58 Cloudy 64 17.9 63 17.2 96 96 ESE 8 13 29.90 1013 10 16 0.00 0.00
3:07 am 03:07 Cloudy 64 18 63 17 94 94 ESE 8 13 29.85 1011 10 16 0.00 0.00
3:58 am 03:58 Cloudy 64 17.8 63 17.1 96 96 ESE 6 9 29.89 1012 10 16 0.00 0.00
4:22 am 04:22 Cloudy 64 18 63 17 94 94 ESE 5 7 29.85 1011 10 16 0.00 0.00
4:52 am 04:52 Cloudy 64 18 63 17 94 94 SE 6 9 29.85 1011 10 16 0.00 0.00
4:58 am 04:58 Cloudy 64 17.6 63 17.3 98 98 SE 5 7 29.88 1012 10 16 0.00 0.00
5:58 am 05:58 Cloudy 64 17.8 63 17.2 96 96 Calm 29.89 1012 10 16 0.00 0.00
6:07 am 06:07 Cloudy 64 18 63 17 94 94 ESE 3 6 29.85 1011 10 16 0.00 0.00
6:58 am 06:58 Cloudy 64 18 64 17.6 98 98 ESE 5 7 29.89 1012 10 16 0.00 0.00
7:58 am 07:58 Cloudy 65 18.3 64 17.7 96 96 SSE 1 2 29.90 1013 10 16 0.00 0.00
8:04 am 08:04 Cloudy 64 18 64 18 100 100 VRB 2 4 29.88 1012 10 16 0.00 0.00
8:19 am 08:19 Cloudy 64 18 64 18 100 100 SSW 3 6 29.88 1012 10 16 0.00 0.00
8:40 am 08:40 Cloudy 64 18 64 18 100 100 SE 3 6 29.85 1011 9 14 0.00 0.00
8:58 am 08:58 Cloudy 66 18.7 64 17.6 93 93 SE 3 6 29.88 1012 10 16 0.00 0.00
9:25 am 09:25 Cloudy 66 19 64 18 94 94 SSE 3 6 29.85 1011 10 16 0.00 0.00
9:46 am 09:46 Cloudy 66 19 64 18 94 94 SSE 3 6 29.85 1011 10 16 0.00 0.00
9:52 am 09:52 Cloudy 66 19 64 18 94 94 SSE 6 9 29.85 1011 10 16 0.00 0.00
9:58 am 09:58 Cloudy 67 19.4 64 17.7 90 90 SE 6 9 29.88 1012 10 16 0.00 0.00
10:44 am 10:44 Cloudy 68 20 64 18 88 88 SE 8 13 29.85 1011 10 16 0.00 0.00
10:58 am 10:58 Cloudy 67 19.7 65 18.4 92 92 ESE 9 15 29.87 1011 10 16 0.00 0.00
11:31 am 11:31 Cloudy 70 21 66 19 88 88 S 6 9 29.83 1010 10 16 0.00 0.00
11:49 am 11:49 Cloudy 70 21 66 19 88 88 SSE 9 15 29.83 1010 10 16 0.00 0.00
11:58 am 11:58 Cloudy 70 21.2 66 18.8 86 86 S 7 11 29.85 1011 10 16 0.00 0.00
12:52 pm 12:52 Cloudy 72 22 66 19 83 83 WSW 6 9 29.85 1011 10 16 0.00 0.00
12:58 pm 12:58 Cloudy 72 22.2 66 18.9 82 82 SW 7 11 29.88 1012 10 16 0.00 0.00
1:46 pm 13:46 Mostly Cloudy 73 23 66 19 78 78 WSW 7 11 29.83 1010 10 16 0.00 0.00
1:58 pm 13:58 Cloudy 73 23 66 19 78 78 VRB 6 9 29.87 1012 10 16 0.00 0.00
2:04 pm 14:04 Cloudy 75 24 68 20 78 78 SW 6 9 29.83 1010 10 16 0.00 0.00
2:07 pm 14:07 Cloudy 75 24 68 20 78 78 VRB 5 7 29.83 1010 10 16 0.00 0.00
2:58 pm 14:58 Cloudy 77 25 68 20 74 74 VRB 5 7 29.86 1011 10 16 0.00 0.00
3:58 pm 15:58 Mostly Cloudy 79 26.1 69 20.6 72 72 ESE 7 11 29.85 1011 10 16 0.00 0.00
4:07 pm 16:07 Mostly Cloudy 79 26 68 20 70 70 VRB 6 9 29.80 1009 10 16 0.00 0.00
4:22 pm 16:22 Mostly Cloudy 81 27 68 20 66 66 S 8 13 29.80 1009 10 16 0.00 0.00
4:37 pm 16:37 Mostly Cloudy 81 27 68 20 66 66 S 9 15 29.80 1009 10 16 0.00 0.00
4:58 pm 16:58 Mostly Cloudy 81 27.1 68 20.2 66 66 S 9 15 29.84 1011 10 16 0.00 0.00
5:25 pm 17:25 Partly Cloudy 81 27 68 20 66 66 S 9 15 29.80 1009 10 16 0.00 0.00
5:58 pm 17:58 Mostly Cloudy 80 26.8 68 20.1 67 67 SSW 8 13 29.83 1010 10 16 0.00 0.00
6:58 pm 18:58 Mostly Sunny 81 27.2 69 20.3 66 66 S 8 13 29.81 1010 10 16 0.00 0.00
7:58 pm 19:58 Mostly Sunny 80 26.4 69 20.7 71 71 S 7 11 29.80 1009 10 16 0.00 0.00
8:58 pm 20:58 Mostly Sunny 77 24.8 70 21 79 79 S 3 6 29.80 1009 10 16 0.00 0.00
9:58 pm 21:58 Mostly Clear 74 23.2 71 21.6 91 91 S 3 6 29.82 1010 10 16 0.00 0.00
10:58 pm 22:58 Partly Cloudy with Mist and Fog 70 21 70 21 100 100 E 5 7 29.82 1010 5 8 0.00 0.00
11:58 pm 23:58 Clear 69 20.8 69 20.8 100 100 E 5 7 29.82 1010 10 16 0.00 0.00

Powered by AerisWeather